GEOSCAN 4 (RS92S4)

Last updated on Thu Oct 30 2025 00:03:11 GMT+0000 (Coordinated Universal Time)

1 64892U 25155S 25302.46292508 .00018585 00000+0 73991-3 0 9993 2 64892 97.4282 266.6462 0004458 292.1291 67.9473 15.25288947 45558
UTC large
Height (km)
Speed (km/s)
/
Latitude / Longitude
Inclination (degrees)
Orbital Period (minutes)
Azimuth
Elevation
Range (km)
Doppler Factor

Next 0 passes for location: London (51.5072 / 0.1276)

Sorry there are no passes over London.